Year,Month,Day,Hour,Minute,Value (Times are PST for temperature in C)
2016,04,01,00,00,9.50
2016,04,01,00,01,9.50
2016,04,01,00,02,9.50
2016,04,01,00,03,9.50
2016,04,01,00,04,9.50
2016,04,01,00,05,9.50
2016,04,01,00,06,9.50
2016,04,01,00,07,9.40
2016,04,01,00,08,9.40
2016,04,01,00,09,9.40
2016,04,01,00,10,9.40
2016,04,01,00,11,9.30
2016,04,01,00,12,9.30
2016,04,01,00,13,9.30
2016,04,01,00,14,9.30
2016,04,01,00,15,9.30
2016,04,01,00,16,9.30
2016,04,01,00,17,9.20
2016,04,01,00,18,9.20
2016,04,01,00,19,9.20
2016,04,01,00,20,9.20
2016,04,01,00,21,9.20
2016,04,01,00,22,9.20
2016,04,01,00,23,9.10
2016,04,01,00,24,9.10
2016,04,01,00,25,9.10
2016,04,01,00,26,9.10
2016,04,01,00,27,9.10
2016,04,01,00,28,9.10
2016,04,01,00,29,9.10
2016,04,01,00,30,9.00
2016,04,01,00,31,9.00
2016,04,01,00,32,9.00
2016,04,01,00,33,9.00
2016,04,01,00,34,8.90
2016,04,01,00,35,8.90
2016,04,01,00,36,8.90
2016,04,01,00,37,8.90
2016,04,01,00,38,8.90
2016,04,01,00,39,8.80
2016,04,01,00,40,8.80
2016,04,01,00,41,8.80
2016,04,01,00,42,8.80
2016,04,01,00,43,8.80
2016,04,01,00,44,8.80
2016,04,01,00,45,8.80
2016,04,01,00,46,8.80
2016,04,01,00,47,8.70
2016,04,01,00,48,8.70
2016,04,01,00,49,8.70
2016,04,01,00,50,8.70
2016,04,01,00,51,8.70
2016,04,01,00,52,8.70
2016,04,01,00,53,8.70
2016,04,01,00,54,8.70
2016,04,01,00,55,8.70
2016,04,01,00,56,8.70
2016,04,01,00,57,8.70
2016,04,01,00,58,8.70
2016,04,01,00,59,8.60
2016,04,01,01,00,8.60
2016,04,01,01,01,8.60
2016,04,01,01,02,8.60
2016,04,01,01,03,8.60
2016,04,01,01,04,8.60
2016,04,01,01,05,8.60
2016,04,01,01,06,8.60
2016,04,01,01,07,8.60
2016,04,01,01,08,8.50
2016,04,01,01,09,8.50
2016,04,01,01,10,8.50
2016,04,01,01,11,8.50
2016,04,01,01,12,8.50
2016,04,01,01,13,8.50
2016,04,01,01,14,8.50
2016,04,01,01,15,8.50
2016,04,01,01,16,8.40
2016,04,01,01,17,8.40
2016,04,01,01,18,8.40
2016,04,01,01,19,8.40
2016,04,01,01,20,8.40
2016,04,01,01,21,8.40
2016,04,01,01,22,8.40
2016,04,01,01,23,8.40
2016,04,01,01,24,8.40
2016,04,01,01,25,8.40
2016,04,01,01,26,8.30
2016,04,01,01,27,8.30
2016,04,01,01,28,8.30
2016,04,01,01,29,8.30
2016,04,01,01,30,8.30
2016,04,01,01,31,8.30
2016,04,01,01,32,8.30
2016,04,01,01,33,8.30
2016,04,01,01,34,8.30
2016,04,01,01,35,8.30
2016,04,01,01,36,8.20
2016,04,01,01,37,8.20
2016,04,01,01,38,8.20
2016,04,01,01,39,8.20
2016,04,01,01,40,8.20
2016,04,01,01,41,8.10
2016,04,01,01,42,8.10
2016,04,01,01,43,8.10
2016,04,01,01,44,8.10
2016,04,01,01,45,8.10
2016,04,01,01,46,8.10
2016,04,01,01,47,8.10
2016,04,01,01,48,8.10
2016,04,01,01,49,8.10
2016,04,01,01,50,8.10
2016,04,01,01,51,8.10
2016,04,01,01,52,8.10
2016,04,01,01,53,8.00
2016,04,01,01,54,8.00
2016,04,01,01,55,8.00
2016,04,01,01,56,8.00
2016,04,01,01,57,8.00
2016,04,01,01,58,7.90
2016,04,01,01,59,7.90
2016,04,01,02,00,7.90
2016,04,01,02,01,7.90
2016,04,01,02,02,7.90
2016,04,01,02,03,7.80
2016,04,01,02,04,7.80
2016,04,01,02,05,7.80
2016,04,01,02,06,7.80
2016,04,01,02,07,7.80
2016,04,01,02,08,7.80
2016,04,01,02,09,7.80
2016,04,01,02,10,7.80
2016,04,01,02,11,7.80
2016,04,01,02,12,7.80
2016,04,01,02,13,7.80
2016,04,01,02,14,7.80
2016,04,01,02,15,7.70
2016,04,01,02,16,7.70
2016,04,01,02,17,7.70
2016,04,01,02,18,7.70
2016,04,01,02,19,7.70
2016,04,01,02,20,7.70
2016,04,01,02,21,7.70
2016,04,01,02,22,7.70
2016,04,01,02,23,7.70
2016,04,01,02,24,7.70
2016,04,01,02,25,7.70
2016,04,01,02,26,7.70
2016,04,01,02,27,7.70
2016,04,01,02,28,7.70
2016,04,01,02,29,7.70
2016,04,01,02,30,7.70
2016,04,01,02,31,7.70
2016,04,01,02,32,7.70
2016,04,01,02,33,7.70
2016,04,01,02,34,7.70
2016,04,01,02,35,7.70
2016,04,01,02,36,7.60
2016,04,01,02,37,7.60
2016,04,01,02,38,7.60
2016,04,01,02,39,7.60
2016,04,01,02,40,7.60
2016,04,01,02,41,7.50
2016,04,01,02,42,7.50
2016,04,01,02,43,7.50
2016,04,01,02,44,7.50
2016,04,01,02,45,7.50
2016,04,01,02,46,7.40
2016,04,01,02,47,7.40
2016,04,01,02,48,7.40
2016,04,01,02,49,7.40
2016,04,01,02,50,7.30
2016,04,01,02,51,7.30
2016,04,01,02,52,7.30
2016,04,01,02,53,7.30
2016,04,01,02,54,7.30
2016,04,01,02,55,7.30
2016,04,01,02,56,7.20
2016,04,01,02,57,7.20
2016,04,01,02,58,7.20
2016,04,01,02,59,7.20
2016,04,01,03,00,7.20
2016,04,01,03,01,7.20
2016,04,01,03,02,7.20
2016,04,01,03,03,7.20
2016,04,01,03,04,7.20
2016,04,01,03,05,7.20
2016,04,01,03,06,7.20
2016,04,01,03,07,7.20
2016,04,01,03,08,7.20
2016,04,01,03,09,7.20
2016,04,01,03,10,7.20
2016,04,01,03,11,7.20
2016,04,01,03,12,7.20
2016,04,01,03,13,7.20
2016,04,01,03,14,7.20
2016,04,01,03,15,7.20
2016,04,01,03,16,7.20
2016,04,01,03,17,7.20
2016,04,01,03,18,7.20
2016,04,01,03,19,7.20
2016,04,01,03,20,7.20
2016,04,01,03,21,7.20
2016,04,01,03,22,7.10
2016,04,01,03,23,7.10
2016,04,01,03,24,7.10
2016,04,01,03,25,7.10
2016,04,01,03,26,7.10
2016,04,01,03,27,7.10
2016,04,01,03,28,7.10
2016,04,01,03,29,7.00
2016,04,01,03,30,7.00
2016,04,01,03,31,7.00
2016,04,01,03,32,6.90
2016,04,01,03,33,6.90
2016,04,01,03,34,6.90
2016,04,01,03,35,6.90
2016,04,01,03,36,6.90
2016,04,01,03,37,6.80
2016,04,01,03,38,6.80
2016,04,01,03,39,6.80
2016,04,01,03,40,6.80
2016,04,01,03,41,6.80
2016,04,01,03,42,6.80
2016,04,01,03,43,6.80
2016,04,01,03,44,6.80
2016,04,01,03,45,6.70
2016,04,01,03,46,6.70
2016,04,01,03,47,6.70
2016,04,01,03,48,6.70
2016,04,01,03,49,6.70
2016,04,01,03,50,6.70
2016,04,01,03,51,6.70
2016,04,01,03,52,6.70
2016,04,01,03,53,6.70
2016,04,01,03,54,6.70
2016,04,01,03,55,6.70
2016,04,01,03,56,6.70
2016,04,01,03,57,6.70
2016,04,01,03,58,6.80
2016,04,01,03,59,6.80
2016,04,01,04,00,6.70
2016,04,01,04,01,6.70
2016,04,01,04,02,6.70
2016,04,01,04,03,6.70
2016,04,01,04,04,6.60
2016,04,01,04,05,6.70
2016,04,01,04,06,6.70
2016,04,01,04,07,6.70
2016,04,01,04,08,6.70
2016,04,01,04,09,6.70
2016,04,01,04,10,6.60
2016,04,01,04,11,6.60
2016,04,01,04,12,6.60
2016,04,01,04,13,6.60
2016,04,01,04,14,6.60
2016,04,01,04,15,6.60
2016,04,01,04,16,6.60
2016,04,01,04,17,6.60
2016,04,01,04,18,6.60
2016,04,01,04,19,6.60
2016,04,01,04,20,6.60
2016,04,01,04,21,6.60
2016,04,01,04,22,6.60
2016,04,01,04,23,6.60
2016,04,01,04,24,6.60
2016,04,01,04,25,6.60
2016,04,01,04,26,6.60
2016,04,01,04,27,6.50
2016,04,01,04,28,6.50
2016,04,01,04,29,6.40
2016,04,01,04,30,6.40
2016,04,01,04,31,6.40
2016,04,01,04,32,6.40
2016,04,01,04,33,6.40
2016,04,01,04,34,6.40
2016,04,01,04,35,6.30
2016,04,01,04,36,6.30
2016,04,01,04,37,6.30
2016,04,01,04,38,6.30
2016,04,01,04,39,6.30
2016,04,01,04,40,6.30
2016,04,01,04,41,6.30
2016,04,01,04,42,6.30
2016,04,01,04,43,6.40
2016,04,01,04,44,6.40
2016,04,01,04,45,6.40
2016,04,01,04,46,6.40
2016,04,01,04,47,6.40
2016,04,01,04,48,6.30
2016,04,01,04,49,6.30
2016,04,01,04,50,6.30
2016,04,01,04,51,6.30
2016,04,01,04,52,6.30
2016,04,01,04,53,6.30
2016,04,01,04,54,6.20
2016,04,01,04,55,6.20
2016,04,01,04,56,6.20
2016,04,01,04,57,6.20
2016,04,01,04,58,6.20
2016,04,01,04,59,6.20
2016,04,01,05,00,6.10
2016,04,01,05,01,6.10
2016,04,01,05,02,6.10
2016,04,01,05,03,6.10
2016,04,01,05,04,6.00
2016,04,01,05,05,6.00
2016,04,01,05,06,6.00
2016,04,01,05,07,5.90
2016,04,01,05,08,5.90
2016,04,01,05,09,5.90
2016,04,01,05,10,5.90
2016,04,01,05,11,5.90
2016,04,01,05,12,5.90
2016,04,01,05,13,5.90
2016,04,01,05,14,5.90
2016,04,01,05,15,5.90
2016,04,01,05,16,5.90
2016,04,01,05,17,6.00
2016,04,01,05,18,6.00
2016,04,01,05,19,6.00
2016,04,01,05,20,6.00
2016,04,01,05,21,6.00
2016,04,01,05,22,6.00
2016,04,01,05,23,6.00
2016,04,01,05,24,6.00
2016,04,01,05,25,5.90
2016,04,01,05,26,5.90
2016,04,01,05,27,5.80
2016,04,01,05,28,5.80
2016,04,01,05,29,5.80
2016,04,01,05,30,5.80
2016,04,01,05,31,5.80
2016,04,01,05,32,5.80
2016,04,01,05,33,5.80
2016,04,01,05,34,5.80
2016,04,01,05,35,5.80
2016,04,01,05,36,5.80
2016,04,01,05,37,5.70
2016,04,01,05,38,5.70
2016,04,01,05,39,5.70
2016,04,01,05,40,5.70
2016,04,01,05,41,5.70
2016,04,01,05,42,5.70
2016,04,01,05,43,5.70
2016,04,01,05,44,5.70
2016,04,01,05,45,5.70
2016,04,01,05,46,5.70
2016,04,01,05,47,5.70
2016,04,01,05,48,5.70
2016,04,01,05,49,5.70
2016,04,01,05,50,5.80
2016,04,01,05,51,5.80
2016,04,01,05,52,5.80
2016,04,01,05,53,5.80
2016,04,01,05,54,5.80
2016,04,01,05,55,5.80
2016,04,01,05,56,5.80
2016,04,01,05,57,5.80
2016,04,01,05,58,5.70
2016,04,01,05,59,5.70
2016,04,01,06,00,5.70
2016,04,01,06,01,5.70
2016,04,01,06,02,5.70
2016,04,01,06,03,5.70
2016,04,01,06,04,5.70
2016,04,01,06,05,5.70
2016,04,01,06,06,5.70
2016,04,01,06,07,5.70
2016,04,01,06,08,5.60
2016,04,01,06,09,5.60
2016,04,01,06,10,5.60
2016,04,01,06,11,5.60
2016,04,01,06,12,5.60
2016,04,01,06,13,5.60
2016,04,01,06,14,5.50
2016,04,01,06,15,5.50
2016,04,01,06,16,5.50
2016,04,01,06,17,5.50
2016,04,01,06,18,5.50
2016,04,01,06,19,5.50
2016,04,01,06,20,5.60
2016,04,01,06,21,5.60
2016,04,01,06,22,5.60
2016,04,01,06,23,5.60
2016,04,01,06,24,5.60
2016,04,01,06,25,5.60
2016,04,01,06,26,5.60
2016,04,01,06,27,5.60
2016,04,01,06,28,5.50
2016,04,01,06,29,5.50
2016,04,01,06,30,5.50
2016,04,01,06,31,5.50
2016,04,01,06,32,5.50
2016,04,01,06,33,5.50
2016,04,01,06,34,5.50
2016,04,01,06,35,5.50
2016,04,01,06,36,5.40
2016,04,01,06,37,5.40
2016,04,01,06,38,5.40
2016,04,01,06,39,5.40
2016,04,01,06,40,5.40
2016,04,01,06,41,5.40
2016,04,01,06,42,5.40
2016,04,01,06,43,5.40
2016,04,01,06,44,5.40
2016,04,01,06,45,5.30
2016,04,01,06,46,5.30
2016,04,01,06,47,5.30
2016,04,01,06,48,5.30
2016,04,01,06,49,5.30
2016,04,01,06,50,5.30
2016,04,01,06,51,5.30
2016,04,01,06,52,5.30
2016,04,01,06,53,5.30
2016,04,01,06,54,5.30
2016,04,01,06,55,5.30
2016,04,01,06,56,5.30
2016,04,01,06,57,5.30
2016,04,01,06,58,5.30
2016,04,01,06,59,5.30
2016,04,01,07,00,5.30
2016,04,01,07,01,5.30
2016,04,01,07,02,5.30
2016,04,01,07,03,5.40
2016,04,01,07,04,5.40
2016,04,01,07,05,5.40
2016,04,01,07,06,5.40
2016,04,01,07,07,5.40
2016,04,01,07,08,5.40
2016,04,01,07,09,5.40
2016,04,01,07,10,5.40
2016,04,01,07,11,5.40
2016,04,01,07,12,5.40
2016,04,01,07,13,5.30
2016,04,01,07,14,5.30
2016,04,01,07,15,5.30
2016,04,01,07,16,5.30
2016,04,01,07,17,5.30
2016,04,01,07,18,5.30
2016,04,01,07,19,5.30
2016,04,01,07,20,5.30
2016,04,01,07,21,5.30
2016,04,01,07,22,5.30
2016,04,01,07,23,5.30
2016,04,01,07,24,5.30
2016,04,01,07,25,5.30
2016,04,01,07,26,5.30
2016,04,01,07,27,5.30
2016,04,01,07,28,5.30
2016,04,01,07,29,5.30
2016,04,01,07,30,5.40
2016,04,01,07,31,5.40
2016,04,01,07,32,5.40
2016,04,01,07,33,5.40
2016,04,01,07,34,5.40
2016,04,01,07,35,5.50
2016,04,01,07,36,5.50
2016,04,01,07,37,5.50
2016,04,01,07,38,5.60
2016,04,01,07,39,5.60
2016,04,01,07,40,5.60
2016,04,01,07,41,5.60
2016,04,01,07,42,5.70
2016,04,01,07,43,5.70
2016,04,01,07,44,5.70
2016,04,01,07,45,5.80
2016,04,01,07,46,5.80
2016,04,01,07,47,5.80
2016,04,01,07,48,5.80
2016,04,01,07,49,5.90
2016,04,01,07,50,5.90
2016,04,01,07,51,5.90
2016,04,01,07,52,6.00
2016,04,01,07,53,6.00
2016,04,01,07,54,6.10
2016,04,01,07,55,6.10
2016,04,01,07,56,6.10
2016,04,01,07,57,6.20
2016,04,01,07,58,6.20
2016,04,01,07,59,6.20
2016,04,01,08,00,6.30
2016,04,01,08,01,6.30
2016,04,01,08,02,6.30
2016,04,01,08,03,6.40
2016,04,01,08,04,6.50
2016,04,01,08,05,6.50
2016,04,01,08,06,6.60
2016,04,01,08,07,6.70
2016,04,01,08,08,6.70
2016,04,01,08,09,6.70
2016,04,01,08,10,6.80
2016,04,01,08,11,6.80
2016,04,01,08,12,6.90
2016,04,01,08,13,7.00
2016,04,01,08,14,7.00
2016,04,01,08,15,7.10
2016,04,01,08,16,7.10
2016,04,01,08,17,7.20
2016,04,01,08,18,7.20
2016,04,01,08,19,7.30
2016,04,01,08,20,7.30
2016,04,01,08,21,7.40
2016,04,01,08,22,7.40
2016,04,01,08,23,7.50
2016,04,01,08,24,7.60
2016,04,01,08,25,7.60
2016,04,01,08,26,7.60
2016,04,01,08,27,7.70
2016,04,01,08,28,7.70
2016,04,01,08,29,7.80
2016,04,01,08,30,7.80
2016,04,01,08,31,7.90
2016,04,01,08,32,7.90
2016,04,01,08,33,7.90
2016,04,01,08,34,8.00
2016,04,01,08,35,8.10
2016,04,01,08,36,8.10
2016,04,01,08,37,8.20
2016,04,01,08,38,8.20
2016,04,01,08,39,8.30
2016,04,01,08,40,8.30
2016,04,01,08,41,8.30
2016,04,01,08,42,8.40
2016,04,01,08,43,8.50
2016,04,01,08,44,8.50
2016,04,01,08,45,8.60
2016,04,01,08,46,8.60
2016,04,01,08,47,8.70
2016,04,01,08,48,8.80
2016,04,01,08,49,8.80
2016,04,01,08,50,8.90
2016,04,01,08,51,8.90
2016,04,01,08,52,9.00
2016,04,01,08,53,9.00
2016,04,01,08,54,9.10
2016,04,01,08,55,9.10
2016,04,01,08,56,9.20
2016,04,01,08,57,9.30
2016,04,01,08,58,9.30
2016,04,01,08,59,9.40
2016,04,01,09,00,9.50
2016,04,01,09,01,9.60
2016,04,01,09,02,9.70
2016,04,01,09,03,9.90
2016,04,01,09,04,10.00
2016,04,01,09,05,10.10
2016,04,01,09,06,10.20
2016,04,01,09,07,10.20
2016,04,01,09,08,10.30
2016,04,01,09,09,10.40
2016,04,01,09,10,10.40
2016,04,01,09,11,10.40
2016,04,01,09,12,10.50
2016,04,01,09,13,10.60
2016,04,01,09,14,10.60
2016,04,01,09,15,10.70
2016,04,01,09,16,10.80
2016,04,01,09,17,10.90
2016,04,01,09,18,11.00
2016,04,01,09,19,11.00
2016,04,01,09,20,11.00
2016,04,01,09,21,11.10
2016,04,01,09,22,11.20
2016,04,01,09,23,11.30
2016,04,01,09,24,11.30
2016,04,01,09,25,11.40
2016,04,01,09,26,11.50
2016,04,01,09,27,11.60
2016,04,01,09,28,11.60
2016,04,01,09,29,11.70
2016,04,01,09,30,11.70
2016,04,01,09,31,11.70
2016,04,01,09,32,11.80
2016,04,01,09,33,11.80
2016,04,01,09,34,11.80
2016,04,01,09,35,11.80
2016,04,01,09,36,11.80
2016,04,01,09,37,11.80
2016,04,01,09,38,11.80
2016,04,01,09,39,11.90
2016,04,01,09,40,11.90
2016,04,01,09,41,11.90
2016,04,01,09,42,12.00
2016,04,01,09,43,12.00
2016,04,01,09,44,12.10
2016,04,01,09,45,12.10
2016,04,01,09,46,12.20
2016,04,01,09,47,12.20
2016,04,01,09,48,12.30
2016,04,01,09,49,12.40
2016,04,01,09,50,12.40
2016,04,01,09,51,12.50
2016,04,01,09,52,12.60
2016,04,01,09,53,12.70
2016,04,01,09,54,12.70
2016,04,01,09,55,12.80
2016,04,01,09,56,12.80
2016,04,01,09,57,12.90
2016,04,01,09,58,13.00
2016,04,01,09,59,13.10
2016,04,01,10,00,13.10
2016,04,01,10,01,13.20
2016,04,01,10,02,13.30
2016,04,01,10,03,13.30
2016,04,01,10,04,13.40
2016,04,01,10,05,13.40
2016,04,01,10,06,13.50
2016,04,01,10,07,13.50
2016,04,01,10,08,13.60
2016,04,01,10,09,13.70
2016,04,01,10,10,13.80
2016,04,01,10,11,13.80
2016,04,01,10,12,13.90
2016,04,01,10,13,14.00
2016,04,01,10,14,14.00
2016,04,01,10,15,14.10
2016,04,01,10,16,14.10
2016,04,01,10,17,14.10
2016,04,01,10,18,14.00
2016,04,01,10,19,14.00
2016,04,01,10,20,13.90
2016,04,01,10,21,13.90
2016,04,01,10,22,13.90
2016,04,01,10,23,13.80
2016,04,01,10,24,13.80
2016,04,01,10,25,13.80
2016,04,01,10,26,13.80
2016,04,01,10,27,13.80
2016,04,01,10,28,13.80
2016,04,01,10,29,13.90
2016,04,01,10,30,13.90
2016,04,01,10,31,14.00
2016,04,01,10,32,14.10
2016,04,01,10,33,14.10
2016,04,01,10,34,14.10
2016,04,01,10,35,14.10
2016,04,01,10,36,14.10
2016,04,01,10,37,14.00
2016,04,01,10,38,14.00
2016,04,01,10,39,13.90
2016,04,01,10,40,13.90
2016,04,01,10,41,13.80
2016,04,01,10,42,13.70
2016,04,01,10,43,13.70
2016,04,01,10,44,13.70
2016,04,01,10,45,13.70
2016,04,01,10,46,13.60
2016,04,01,10,47,13.60
2016,04,01,10,48,13.60
2016,04,01,10,49,13.60
2016,04,01,10,50,13.50
2016,04,01,10,51,13.60
2016,04,01,10,52,13.60
2016,04,01,10,53,13.60
2016,04,01,10,54,13.60
2016,04,01,10,55,13.60
2016,04,01,10,56,13.60
2016,04,01,10,57,13.60
2016,04,01,10,58,13.70
2016,04,01,10,59,13.80
2016,04,01,11,00,13.80
2016,04,01,11,01,13.90
2016,04,01,11,02,13.90
2016,04,01,11,03,13.90
2016,04,01,11,04,14.00
2016,04,01,11,05,14.10
2016,04,01,11,06,14.10
2016,04,01,11,07,14.10
2016,04,01,11,08,14.10
2016,04,01,11,09,14.10
2016,04,01,11,10,14.00
2016,04,01,11,11,14.00
2016,04,01,11,12,14.00
2016,04,01,11,13,14.10
2016,04,01,11,14,14.10
2016,04,01,11,15,14.10
2016,04,01,11,16,14.00
2016,04,01,11,17,14.00
2016,04,01,11,18,14.00
2016,04,01,11,19,14.00
2016,04,01,11,20,14.10
2016,04,01,11,21,14.10
2016,04,01,11,22,14.10
2016,04,01,11,23,14.10
2016,04,01,11,24,14.10
2016,04,01,11,25,14.10
2016,04,01,11,26,14.20
2016,04,01,11,27,14.20
2016,04,01,11,28,14.20
2016,04,01,11,29,14.20
2016,04,01,11,30,14.20
2016,04,01,11,31,14.20
2016,04,01,11,32,14.20
2016,04,01,11,33,14.20
2016,04,01,11,34,14.30
2016,04,01,11,35,14.30
2016,04,01,11,36,14.30
2016,04,01,11,37,14.30
2016,04,01,11,38,14.30
2016,04,01,11,39,14.40
2016,04,01,11,40,14.40
2016,04,01,11,41,14.40
2016,04,01,11,42,14.50
2016,04,01,11,43,14.50
2016,04,01,11,44,14.60
2016,04,01,11,45,14.60
2016,04,01,11,46,14.60
2016,04,01,11,47,14.70
2016,04,01,11,48,14.80
2016,04,01,11,49,14.80
2016,04,01,11,50,14.80
2016,04,01,11,51,14.80
2016,04,01,11,52,14.90
2016,04,01,11,53,14.90
2016,04,01,11,54,14.80
2016,04,01,11,55,14.80
2016,04,01,11,56,14.80
2016,04,01,11,57,14.90
2016,04,01,11,58,14.90
2016,04,01,11,59,14.90
2016,04,01,12,00,14.80
2016,04,01,12,01,14.80
2016,04,01,12,02,14.80
2016,04,01,12,03,14.80
2016,04,01,12,04,14.80
2016,04,01,12,05,14.80
2016,04,01,12,06,14.70
2016,04,01,12,07,14.70
2016,04,01,12,08,14.70
2016,04,01,12,09,14.80
2016,04,01,12,10,14.80
2016,04,01,12,11,14.90
2016,04,01,12,12,14.90
2016,04,01,12,13,14.90
2016,04,01,12,14,14.90
2016,04,01,12,15,14.80
2016,04,01,12,16,14.80
2016,04,01,12,17,14.70
2016,04,01,12,18,14.70
2016,04,01,12,19,14.60
2016,04,01,12,20,14.60
2016,04,01,12,21,14.60
2016,04,01,12,22,14.60
2016,04,01,12,23,14.60
2016,04,01,12,24,14.60
2016,04,01,12,25,14.70
2016,04,01,12,26,14.70
2016,04,01,12,27,14.70
2016,04,01,12,28,14.70
2016,04,01,12,29,14.70
2016,04,01,12,30,14.80
2016,04,01,12,31,14.80
2016,04,01,12,32,14.80
2016,04,01,12,33,14.80
2016,04,01,12,34,14.80
2016,04,01,12,35,14.80
2016,04,01,12,36,14.70
2016,04,01,12,37,14.60
2016,04,01,12,38,14.60
2016,04,01,12,39,14.60
2016,04,01,12,40,14.60
2016,04,01,12,41,14.70
2016,04,01,12,42,14.70
2016,04,01,12,43,14.70
2016,04,01,12,44,14.70
2016,04,01,12,45,14.70
2016,04,01,12,46,14.80
2016,04,01,12,47,14.80
2016,04,01,12,48,14.80
2016,04,01,12,49,14.80
2016,04,01,12,50,14.80
2016,04,01,12,51,14.90
2016,04,01,12,52,14.80
2016,04,01,12,53,14.80
2016,04,01,12,54,14.80
2016,04,01,12,55,14.80
2016,04,01,12,56,14.80
2016,04,01,12,57,14.70
2016,04,01,12,58,14.70
2016,04,01,12,59,14.80
2016,04,01,13,00,14.80
2016,04,01,13,01,14.80
2016,04,01,13,02,14.90
2016,04,01,13,03,14.90
2016,04,01,13,04,15.00
2016,04,01,13,05,15.10
2016,04,01,13,06,15.10
2016,04,01,13,07,15.10
2016,04,01,13,08,15.10
2016,04,01,13,09,15.10
2016,04,01,13,10,15.10
2016,04,01,13,11,15.20
2016,04,01,13,12,15.20
2016,04,01,13,13,15.20
2016,04,01,13,14,15.30
2016,04,01,13,15,15.30
2016,04,01,13,16,15.40
2016,04,01,13,17,15.40
2016,04,01,13,18,15.50
2016,04,01,13,19,15.50
2016,04,01,13,20,15.50
2016,04,01,13,21,15.40
2016,04,01,13,22,15.40
2016,04,01,13,23,15.40
2016,04,01,13,24,15.40
2016,04,01,13,25,15.30
2016,04,01,13,26,15.40
2016,04,01,13,27,15.40
2016,04,01,13,28,15.50
2016,04,01,13,29,15.50
2016,04,01,13,30,15.60
2016,04,01,13,31,15.70
2016,04,01,13,32,15.70
2016,04,01,13,33,15.80
2016,04,01,13,34,15.80
2016,04,01,13,35,15.90
2016,04,01,13,36,15.90
2016,04,01,13,37,15.90
2016,04,01,13,38,15.90
2016,04,01,13,39,16.00
2016,04,01,13,40,16.10
2016,04,01,13,41,16.10
2016,04,01,13,42,16.10
2016,04,01,13,43,16.10
2016,04,01,13,44,16.10
2016,04,01,13,45,16.10
2016,04,01,13,46,16.10
2016,04,01,13,47,16.10
2016,04,01,13,48,16.20
2016,04,01,13,49,16.10
2016,04,01,13,50,16.10
2016,04,01,13,51,16.10
2016,04,01,13,52,16.10
2016,04,01,13,53,16.20
2016,04,01,13,54,16.20
2016,04,01,13,55,16.30
2016,04,01,13,56,16.30
2016,04,01,13,57,16.30
2016,04,01,13,58,16.30
2016,04,01,13,59,16.30
2016,04,01,14,00,16.30
2016,04,01,14,01,16.40
2016,04,01,14,02,16.50
2016,04,01,14,03,16.60
2016,04,01,14,04,16.60
2016,04,01,14,05,16.70
2016,04,01,14,06,16.60
2016,04,01,14,07,16.60
2016,04,01,14,08,16.60
2016,04,01,14,09,16.60
2016,04,01,14,10,16.50
2016,04,01,14,11,16.50
2016,04,01,14,12,16.40
2016,04,01,14,13,16.50
2016,04,01,14,14,16.50
2016,04,01,14,15,16.50
2016,04,01,14,16,16.50
2016,04,01,14,17,16.50
2016,04,01,14,18,16.50
2016,04,01,14,19,16.50
2016,04,01,14,20,16.50
2016,04,01,14,21,16.50
2016,04,01,14,22,16.50
2016,04,01,14,23,16.50
2016,04,01,14,24,16.60
2016,04,01,14,25,16.70
2016,04,01,14,26,16.70
2016,04,01,14,27,16.80
2016,04,01,14,28,16.80
2016,04,01,14,29,16.80
2016,04,01,14,30,16.90
2016,04,01,14,31,16.90
2016,04,01,14,32,17.00
2016,04,01,14,33,16.90
2016,04,01,14,34,16.90
2016,04,01,14,35,16.90
2016,04,01,14,36,16.80
2016,04,01,14,37,16.80
2016,04,01,14,38,16.80
2016,04,01,14,39,16.80
2016,04,01,14,40,16.80
2016,04,01,14,41,16.70
2016,04,01,14,42,16.70
2016,04,01,14,43,16.60
2016,04,01,14,44,16.50
2016,04,01,14,45,16.50
2016,04,01,14,46,16.40
2016,04,01,14,47,16.30
2016,04,01,14,48,16.30
2016,04,01,14,49,16.20
2016,04,01,14,50,16.20
2016,04,01,14,51,16.20
2016,04,01,14,52,16.20
2016,04,01,14,53,16.20
2016,04,01,14,54,16.20
2016,04,01,14,55,16.20
2016,04,01,14,56,16.20
2016,04,01,14,57,16.20
2016,04,01,14,58,16.30
2016,04,01,14,59,16.30
2016,04,01,15,00,16.30
2016,04,01,15,01,16.30
2016,04,01,15,02,16.30
2016,04,01,15,03,16.40
2016,04,01,15,04,16.40
2016,04,01,15,05,16.40
2016,04,01,15,06,16.40
2016,04,01,15,07,16.40
2016,04,01,15,08,16.40
2016,04,01,15,09,16.30
2016,04,01,15,10,16.30
2016,04,01,15,11,16.20
2016,04,01,15,12,16.20
2016,04,01,15,13,16.20
2016,04,01,15,14,16.20
2016,04,01,15,15,16.20
2016,04,01,15,16,16.20
2016,04,01,15,17,16.10
2016,04,01,15,18,16.10
2016,04,01,15,19,16.10
2016,04,01,15,20,16.10
2016,04,01,15,21,16.10
2016,04,01,15,22,16.00
2016,04,01,15,23,15.90
2016,04,01,15,24,15.80
2016,04,01,15,25,15.80
2016,04,01,15,26,15.70
2016,04,01,15,27,15.70
2016,04,01,15,28,15.70
2016,04,01,15,29,15.70
2016,04,01,15,30,15.70
2016,04,01,15,31,15.70
2016,04,01,15,32,15.70
2016,04,01,15,33,15.70
2016,04,01,15,34,15.70
2016,04,01,15,35,15.70
2016,04,01,15,36,15.70
2016,04,01,15,37,15.80
2016,04,01,15,38,15.80
2016,04,01,15,39,15.90
2016,04,01,15,40,15.90
2016,04,01,15,41,15.90
2016,04,01,15,42,15.90
2016,04,01,15,43,15.90
2016,04,01,15,44,15.90
2016,04,01,15,45,15.90
2016,04,01,15,46,16.00
2016,04,01,15,47,16.00
2016,04,01,15,48,16.00
2016,04,01,15,49,16.00
2016,04,01,15,50,16.00
2016,04,01,15,51,15.90
2016,04,01,15,52,15.90
2016,04,01,15,53,15.80
2016,04,01,15,54,15.80
2016,04,01,15,55,15.70
2016,04,01,15,56,15.70
2016,04,01,15,57,15.70
2016,04,01,15,58,15.80
2016,04,01,15,59,15.80
2016,04,01,16,00,15.80
2016,04,01,16,01,15.90
2016,04,01,16,02,15.90
2016,04,01,16,03,15.90
2016,04,01,16,04,15.90
2016,04,01,16,05,15.90
2016,04,01,16,06,15.90
2016,04,01,16,07,15.90
2016,04,01,16,08,15.90
2016,04,01,16,09,15.90
2016,04,01,16,10,15.90
2016,04,01,16,11,15.90
2016,04,01,16,12,15.90
2016,04,01,16,13,15.90
2016,04,01,16,14,15.90
2016,04,01,16,15,15.90
2016,04,01,16,16,15.90
2016,04,01,16,17,15.90
2016,04,01,16,18,15.90
2016,04,01,16,19,15.90
2016,04,01,16,20,15.80
2016,04,01,16,21,15.80
2016,04,01,16,22,15.70
2016,04,01,16,23,15.60
2016,04,01,16,24,15.60
2016,04,01,16,25,15.60
2016,04,01,16,26,15.50
2016,04,01,16,27,15.50
2016,04,01,16,28,15.50
2016,04,01,16,29,15.50
2016,04,01,16,30,15.60
2016,04,01,16,31,15.60
2016,04,01,16,32,15.60
2016,04,01,16,33,15.70
2016,04,01,16,34,15.70
2016,04,01,16,35,15.80
2016,04,01,16,36,15.80
2016,04,01,16,37,15.80
2016,04,01,16,38,15.90
2016,04,01,16,39,15.90
2016,04,01,16,40,15.90
2016,04,01,16,41,15.90
2016,04,01,16,42,15.80
2016,04,01,16,43,15.80
2016,04,01,16,44,15.80
2016,04,01,16,45,15.80
2016,04,01,16,46,15.80
2016,04,01,16,47,15.80
2016,04,01,16,48,15.80
2016,04,01,16,49,15.80
2016,04,01,16,50,15.80
2016,04,01,16,51,15.80
2016,04,01,16,52,15.80
2016,04,01,16,53,15.90
2016,04,01,16,54,15.90
2016,04,01,16,55,15.90
2016,04,01,16,56,15.90
2016,04,01,16,57,16.00
2016,04,01,16,58,16.00
2016,04,01,16,59,16.10
2016,04,01,17,00,16.10
2016,04,01,17,01,16.20
2016,04,01,17,02,16.20
2016,04,01,17,03,16.20
2016,04,01,17,04,16.30
2016,04,01,17,05,16.30
2016,04,01,17,06,16.40
2016,04,01,17,07,16.40
2016,04,01,17,08,16.50
2016,04,01,17,09,16.60
2016,04,01,17,10,16.70
2016,04,01,17,11,16.80
2016,04,01,17,12,16.80
2016,04,01,17,13,16.80
2016,04,01,17,14,16.90
2016,04,01,17,15,16.90
2016,04,01,17,16,16.90
2016,04,01,17,17,16.90
2016,04,01,17,18,16.90
2016,04,01,17,19,17.00
2016,04,01,17,20,17.00
2016,04,01,17,21,17.10
2016,04,01,17,22,17.10
2016,04,01,17,23,17.20
2016,04,01,17,24,17.30
2016,04,01,17,25,17.30
2016,04,01,17,26,17.30
2016,04,01,17,27,17.30
2016,04,01,17,28,17.30
2016,04,01,17,29,17.40
2016,04,01,17,30,17.40
2016,04,01,17,31,17.50
2016,04,01,17,32,17.50
2016,04,01,17,33,17.60
2016,04,01,17,34,17.70
2016,04,01,17,35,17.70
2016,04,01,17,36,17.70
2016,04,01,17,37,17.80
2016,04,01,17,38,17.80
2016,04,01,17,39,17.80
2016,04,01,17,40,17.90
2016,04,01,17,41,17.90
2016,04,01,17,42,18.00
2016,04,01,17,43,18.00